Find Local Weather

World > North America > United States > Washington

Cle Elum, Washington Regional Weather

Lat: 47.19N, Lon: 120.93W
Wx Zone: WAZ520
Warning FLW WEATHER ALERT - WINTER STORM WARNING (More Info. Click Here) Warning
Feedback

Cle Elum, WA Regional Weather

Expires:201902231300;;383227
ASUS46 KSEW 231210
RWRWA 

WASHINGTON REGIONAL WEATHER ROUNDUP
NATIONAL WEATHER SERVICE SEATTLE WA
400 AM PST SAT FEB 23 2019

NOTE:"FAIR" INDICATES FEW OR NO CLOUDS BELOW 12,000 FEET WITH NO 
SIGNIFICANT WEATHER AND/OR OBSTRUCTIONS TO VISIBILITY.


WAZ026-027-041>044-520-521-231300-
EAST SLOPES
  
CITY           SKY/WX    TMP DP  RH WIND       PRES   REMARKS
OMAK           CLOUDY    24  21  88 NE3       30.04R                  
6HR MIN TEMP:  24; 6HR MAX TEMP:  27;                                

WENATCHEE      CLOUDY    19  16  88 CALM      30.04R FOG              
6HR MIN TEMP:  14; 6HR MAX TEMP:  20;                                

ELLENSBURG     CLEAR     23  12  62 E6        29.98S HAZE             
6HR MIN TEMP:  14; 6HR MAX TEMP:  35;                                

YAKIMA         CLEAR     11   7  84 W6        30.04R FOG              
6HR MIN TEMP:  10; 6HR MAX TEMP:  23;                                

SUNNYSIDE ARPT SUNNY     18  16  95 CALM      30.05                   
6HR MIN TEMP:  16; 6HR MAX TEMP:  26;                                

YAKIMA TC      FAIR      14  12  92 SW5       30.00R                  
6HR MIN TEMP:  14; 6HR MAX TEMP:  22;                                

$$


SKY/WX - Weather  TMP - Temperature  DP - Dew Point  RH - Relative Humidity
WIND - Wind Direction/Speed PRES - Barometric Pressure VSB - Visibility
WCI - Wind Chill Index E13G22 Wind - East Wind 13 mph/Gusts of 22 mph